Powrót do katalogu

GLOBALSTAR M002

AktywnyŁącznośćLEO
NORAD 25164·PAYLOAD·🇺🇸 United States

Wystrzelony Feb 14, 1998 z Cape Canaveral Space Force Station

Loading…

Następne Przeloty (najbliższe 24 godziny)

TLE

ŚwieżeSource: Space-Track

Epoka: Sep 14, 2026, 04:51 UTC

1 25164U 98008C   26257.20224740 -.00000057  00000-0  37727-3 0  9998
2 25164  52.0002 181.8250 0000915 278.6437  81.4279 11.61517752236824

Śledź GLOBALSTAR M002 w czasie rzeczywistym z AllMySat

Download on the App Store